COSMOS 739

Satellite information

Favourite Embed

Satellite Type and Status

PAYLOADIN ORBIT

Key statistics

Satellite COSMOS 739 at a glance.

Uptime

18468

Days in orbit

Revolutions

≈ 12.5

Per day

Orbit

LEO

Low Earth Orbit

Inclination

74.0

Latest

Satellite identification and parameters

Extended collection of information and parameters for COSMOS 739.

Object identification

Identified? True

Debris? False

Object name: COSMOS 739

International designator: 1975-045H

Object number (NORAD): 7828

Object ID (CCSDS): 7828

Country: COMMONWEALTH OF INDEPENDENT STATES (CIS)

Current information (Y/N): Y

RCS size: MEDIUM

Orbital parameters

Period: 114.814 minutes

Inclination: 74.0187 deg

SMA: 7825.096 km

Apoapsis: 1472.085 km

Periapsis: 1421.837 km

RAAN: 353.3661 deg

Eccentricy: 0.00321075

Argument of periapsis: 246.3139 deg

Mean anomaly: 230.7988 deg

Mean motion: 12.54204208 rev/day

Mean motion (dot): -0.00000003 rev/day2

B* drag term: 0.000081540193 1/REarth

Two-line elements (TLE)

Creation date: Dec. 19, 2025, 2:08 a.m.

Reference frame: TEME

Reference center: EARTH

Epoch: Dec. 18, 2025, 5:08 p.m. UTC

TLE line 0: 0 COSMOS 739

TLE line 1: 1 07828U 75045H 25352.71429579 -.00000003 00000-0 81540-4 0 9993

TLE line 2: 2 07828 74.0187 353.3661 0032108 246.3139 230.7988 12.54204208314950

Live tracking on map

Real-time ground track for satellite COSMOS 739.

In-orbit conjunctions

There are no conjunctions computed for COSMOS 739, at the moment. Check back to stay up to date, as we update our databases every day.

Go to all conjunctions

Associated space launch

Military communications satellites

COSMOS 739 was lifted into orbit during the mission ‘Kosmos-3M | Strela-1M 89-96’, on board a Kosmos-3M space rocket.

The launch took place on May 28, 1975, 12:25 a.m. from 132/1 (132L).

For more information about the launch, click the button.

Launch to space Kosmos-3M | Strela-1M 89-96
Kosmos-3M | Strela-1M 89-96

Agency: N/A

Status: Launch Successful

Launch date: May 28, 1975, 12:25 a.m. UTC

Rocket: Kosmos-3M

Launch pad: 132/1 (132L)

Location: Plesetsk Cosmodrome, Russian Federation

...

Latest news about this satellite

There are no fresh news available about this satellite. Check back as we update our databases every day.


Newsletter sign-up

Weekly statistics, charts and insights to help you stay on top of the space industry.